sat.trackr.live / text

‹ back to catalog

LEO 3

NORAD 57392 · 2023-100G

PAYLOAD ACTIVE UNKNOWN

§ Identity

Operator
Country
CA
Launch date
2023-07-18
Launch site
RLLB
Launch vehicle
Mass (kg)
RCS (m²)

External: N2YO · Heavens-Above · Gunter

§ Orbital elements

Epoch: 2026-05-25T01:59:02.743296Z

Period
105.23 min
Inclination
99.5608°
Eccentricity
0.0019083
Mean motion
13.68419980 rev/d
Perigee alt
991.2 km
Apogee alt
1,019.3 km
Semi-major
7,383.4 km
B*
2.0659e-5
RAAN
269.6222°
Arg perigee
76.4895°
Mean anomaly
283.8375°
Rev number
14,248

§ Raw data

LEO 31 57392U 23100G   26145.08267064 -.00000027  00000+0  20659-4 0  99982 57392  99.5608 269.6222 0019083  76.4895 283.8375 13.68419980142488

JSON: /api/v1/satellites/57392 · /tle

For live sub-satellite position, see the globe view (requires WebGL).

§ Visibility from observer

Set your observer location to see the next 7 days of passes ≥ 10°. The values pass through the URL so the page stays shareable.

No JS? Fill the form by hand. The geolocation button needs JavaScript.